Location: Murdochville
(48.9591°N, 65.4950°W)
Time: 21:32:41
(UTC-04:00)

Envisat - Pass Details

Date: 28 April 2026
Orbit: 761 x 762 km, 98.4° (Epoch: 15 May)

Event Time Altitude Azimuth Distance (km) Brightness Sun altitude
Rises 04:01:38 0° 8° (N) 3,235 6.9 -10.1°
Reaches altitude 10° 04:04:05 10° 360° (N) 2,305 6.0 -9.8°
Maximum altitude 04:08:40 36° 295° (WNW) 1,202 3.8 -9.1°
Enters shadow 04:13:09 10° 231° (SW) 2,258 4.8 -8.5°
